owner,sensor,date,latitude,longitude,vertical_datum,wind_speed,wind_to_direction,wind_speed_of_gust,qcFlag 
LOOP,urn:ioos:station:wmo:lopl1:1,2013-12-01T00:13:00Z,28.8850,-90.0250,10.0,6.2,47.0,8.1,'11111222,11111222,11111222' 
LOOP,urn:ioos:station:wmo:lopl1:1,2013-12-01T00:28:00Z,28.8850,-90.0250,10.0,5.8,48.0,8.2,'11111222,11111222,11111222' 
LOOP,urn:ioos:station:wmo:lopl1:1,2013-12-01T00:43:00Z,28.8850,-90.0250,10.0,5.7,58.0,7.9,'11111222,11111222,11111222' 
LOOP,urn:ioos:station:wmo:lopl1:1,2013-12-01T00:58:00Z,28.8850,-90.0250,10.0,6.2,62.0,8.1,'11111222,11111222,11111222' 
LOOP,urn:ioos:station:wmo:lopl1:1,2013-12-01T01:13:00Z,28.8850,-90.0250,10.0,6.9,65.0,7.9,'11111222,11111222,11111222' 
LOOP,urn:ioos:station:wmo:lopl1:1,2013-12-01T01:33:00Z,28.8850,-90.0250,10.0,7.0,72.0,8.0,'11111222,11111222,11111222' 
LOOP,urn:ioos:station:wmo:lopl1:1,2013-12-01T01:48:00Z,28.8850,-90.0250,10.0,6.9,77.0,8.4,'11111222,11111222,11111222' 
LOOP,urn:ioos:station:wmo:lopl1:1,2013-12-01T02:03:00Z,28.8850,-90.0250,10.0,6.9,79.0,8.1,'11111222,11111222,11111222' 
LOOP,urn:ioos:station:wmo:lopl1:1,2013-12-01T02:18:00Z,28.8850,-90.0250,10.0,6.6,77.0,7.9,'11111222,11111222,11111222' 
LOOP,urn:ioos:station:wmo:lopl1:1,2013-12-01T02:33:00Z,28.8850,-90.0250,10.0,6.9,81.0,7.8,'11111222,11111222,11111222' 
LOOP,urn:ioos:station:wmo:lopl1:1,2013-12-01T02:48:00Z,28.8850,-90.0250,10.0,6.1,77.0,6.9,'11111222,11111222,11111222' 
LOOP,urn:ioos:station:wmo:lopl1:1,2013-12-01T03:03:00Z,28.8850,-90.0250,10.0,6.9,82.0,7.7,'11111222,11111222,11111222' 
LOOP,urn:ioos:station:wmo:lopl1:1,2013-12-01T03:18:00Z,28.8850,-90.0250,10.0,6.1,84.0,7.2,'11111222,11111222,11111222' 
LOOP,urn:ioos:station:wmo:lopl1:1,2013-12-01T03:33:00Z,28.8850,-90.0250,10.0,6.0,78.0,7.3,'11111222,11111222,11111222' 
LOOP,urn:ioos:station:wmo:lopl1:1,2013-12-01T03:48:00Z,28.8850,-90.0250,10.0,5.8,69.0,7.0,'11111222,11111222,11111222' 
LOOP,urn:ioos:station:wmo:lopl1:1,2013-12-01T04:03:00Z,28.8850,-90.0250,10.0,5.7,70.0,6.7,'11111222,11111222,11111222' 
LOOP,urn:ioos:station:wmo:lopl1:1,2013-12-01T04:18:00Z,28.8850,-90.0250,10.0,5.3,77.0,6.3,'11111222,11111222,11111222' 
LOOP,urn:ioos:station:wmo:lopl1:1,2013-12-01T04:33:00Z,28.8850,-90.0250,10.0,5.6,81.0,6.3,'11111222,11111222,11111222' 
LOOP,urn:ioos:station:wmo:lopl1:1,2013-12-01T04:48:00Z,28.8850,-90.0250,10.0,5.3,78.0,6.2,'11111222,11111222,11111222' 
LOOP,urn:ioos:station:wmo:lopl1:1,2013-12-01T05:03:00Z,28.8850,-90.0250,10.0,5.1,77.0,5.9,'11111222,11111222,11111222' 
LOOP,urn:ioos:station:wmo:lopl1:1,2013-12-01T05:18:00Z,28.8850,-90.0250,10.0,5.2,72.0,6.4,'11111222,11111222,11111222' 
LOOP,urn:ioos:station:wmo:lopl1:1,2013-12-01T05:33:00Z,28.8850,-90.0250,10.0,4.9,76.0,5.7,'11111222,11111222,11111222' 
LOOP,urn:ioos:station:wmo:lopl1:1,2013-12-01T05:48:00Z,28.8850,-90.0250,10.0,4.5,77.0,5.4,'11111222,11111222,11111222' 
LOOP,urn:ioos:station:wmo:lopl1:1,2013-12-01T06:03:00Z,28.8850,-90.0250,10.0,4.1,78.0,4.8,'11111222,11111222,11111222' 
LOOP,urn:ioos:station:wmo:lopl1:1,2013-12-01T06:18:00Z,28.8850,-90.0250,10.0,4.8,82.0,5.9,'11111222,11111222,11111222' 
LOOP,urn:ioos:station:wmo:lopl1:1,2013-12-01T06:33:00Z,28.8850,-90.0250,10.0,4.9,79.0,5.9,'11111222,11111222,11111222' 
LOOP,urn:ioos:station:wmo:lopl1:1,2013-12-01T06:48:00Z,28.8850,-90.0250,10.0,4.4,78.0,5.2,'11111222,11111222,11111222' 
LOOP,urn:ioos:station:wmo:lopl1:1,2013-12-01T07:03:00Z,28.8850,-90.0250,10.0,4.2,78.0,5.1,'11111222,11111222,11111222' 
LOOP,urn:ioos:station:wmo:lopl1:1,2013-12-01T07:18:00Z,28.8850,-90.0250,10.0,4.4,69.0,5.1,'11111222,11111222,11111222' 
LOOP,urn:ioos:station:wmo:lopl1:1,2013-12-01T07:33:00Z,28.8850,-90.0250,10.0,4.3,62.0,5.2,'11111222,11111222,11111222' 
LOOP,urn:ioos:station:wmo:lopl1:1,2013-12-01T07:48:00Z,28.8850,-90.0250,10.0,3.8,63.0,5.2,'11111222,11111222,11111222' 
LOOP,urn:ioos:station:wmo:lopl1:1,2013-12-01T08:03:00Z,28.8850,-90.0250,10.0,4.3,62.0,5.7,'11111222,11111222,11111222' 
LOOP,urn:ioos:station:wmo:lopl1:1,2013-12-01T08:23:00Z,28.8850,-90.0250,10.0,5.0,63.0,5.7,'11111222,11111222,11111222' 
LOOP,urn:ioos:station:wmo:lopl1:1,2013-12-01T08:38:00Z,28.8850,-90.0250,10.0,4.5,61.0,5.7,'11111222,11111222,11111222' 
LOOP,urn:ioos:station:wmo:lopl1:1,2013-12-01T08:53:00Z,28.8850,-90.0250,10.0,4.7,60.0,5.4,'11111222,11111222,11111222' 
LOOP,urn:ioos:station:wmo:lopl1:1,2013-12-01T09:08:00Z,28.8850,-90.0250,10.0,4.7,65.0,5.5,'11111222,11111222,11111222' 
LOOP,urn:ioos:station:wmo:lopl1:1,2013-12-01T09:23:00Z,28.8850,-90.0250,10.0,4.5,54.0,5.5,'11111222,11111222,11111222' 
LOOP,urn:ioos:station:wmo:lopl1:1,2013-12-01T09:38:00Z,28.8850,-90.0250,10.0,5.1,64.0,5.9,'11111222,11111222,11111222' 
LOOP,urn:ioos:station:wmo:lopl1:1,2013-12-01T09:58:00Z,28.8850,-90.0250,10.0,4.9,62.0,5.5,'11111222,11111222,11111222' 
LOOP,urn:ioos:station:wmo:lopl1:1,2013-12-01T10:13:00Z,28.8850,-90.0250,10.0,4.9,64.0,6.1,'11111222,11111222,11111222' 
LOOP,urn:ioos:station:wmo:lopl1:1,2013-12-01T10:28:00Z,28.8850,-90.0250,10.0,4.8,41.0,6.2,'11111222,11111222,11111222' 
LOOP,urn:ioos:station:wmo:lopl1:1,2013-12-01T10:43:00Z,28.8850,-90.0250,10.0,5.2,47.0,6.7,'11111222,11111222,11111222' 
LOOP,urn:ioos:station:wmo:lopl1:1,2013-12-01T10:58:00Z,28.8850,-90.0250,10.0,6.2,31.0,7.5,'11111222,11111222,11111222' 
LOOP,urn:ioos:station:wmo:lopl1:1,2013-12-01T11:13:00Z,28.8850,-90.0250,10.0,6.0,38.0,7.3,'11111222,11111222,11111222' 
LOOP,urn:ioos:station:wmo:lopl1:1,2013-12-01T11:28:00Z,28.8850,-90.0250,10.0,6.2,34.0,7.6,'11111222,11111222,11111222' 
LOOP,urn:ioos:station:wmo:lopl1:1,2013-12-01T11:43:00Z,28.8850,-90.0250,10.0,6.0,40.0,7.4,'11111222,11111222,11111222' 
LOOP,urn:ioos:station:wmo:lopl1:1,2013-12-01T11:58:00Z,28.8850,-90.0250,10.0,5.7,46.0,7.5,'11111222,11111222,11111222' 
LOOP,urn:ioos:station:wmo:lopl1:1,2013-12-01T12:13:00Z,28.8850,-90.0250,10.0,5.7,39.0,7.8,'11111222,11111222,11111222' 
LOOP,urn:ioos:station:wmo:lopl1:1,2013-12-01T12:28:00Z,28.8850,-90.0250,10.0,5.2,43.0,6.8,'11111222,11111222,11111222' 
LOOP,urn:ioos:station:wmo:lopl1:1,2013-12-01T12:43:00Z,28.8850,-90.0250,10.0,5.3,52.0,7.3,'11111222,11111222,11111222' 
LOOP,urn:ioos:station:wmo:lopl1:1,2013-12-01T12:58:00Z,28.8850,-90.0250,10.0,5.6,52.0,7.6,'11111222,11111222,11111222' 
LOOP,urn:ioos:station:wmo:lopl1:1,2013-12-01T13:13:00Z,28.8850,-90.0250,10.0,5.2,62.0,7.2,'11111222,11111222,11111222' 
LOOP,urn:ioos:station:wmo:lopl1:1,2013-12-01T13:28:00Z,28.8850,-90.0250,10.0,5.0,46.0,6.4,'11111222,11111222,11111222' 
LOOP,urn:ioos:station:wmo:lopl1:1,2013-12-01T13:43:00Z,28.8850,-90.0250,10.0,5.1,38.0,6.6,'11111222,11111222,11111222' 
LOOP,urn:ioos:station:wmo:lopl1:1,2013-12-01T13:58:00Z,28.8850,-90.0250,10.0,6.1,26.0,7.8,'11111222,11111222,11111222' 
LOOP,urn:ioos:station:wmo:lopl1:1,2013-12-01T14:13:00Z,28.8850,-90.0250,10.0,7.0,24.0,8.6,'11111222,11111222,11111222' 
LOOP,urn:ioos:station:wmo:lopl1:1,2013-12-01T14:28:00Z,28.8850,-90.0250,10.0,6.1,31.0,7.4,'11111222,11111222,11111222' 
LOOP,urn:ioos:station:wmo:lopl1:1,2013-12-01T14:43:00Z,28.8850,-90.0250,10.0,7.0,28.0,8.7,'11111222,11111222,11111222' 
LOOP,urn:ioos:station:wmo:lopl1:1,2013-12-01T14:58:00Z,28.8850,-90.0250,10.0,6.6,30.0,7.9,'11111222,11111222,11111222' 
LOOP,urn:ioos:station:wmo:lopl1:1,2013-12-01T15:13:00Z,28.8850,-90.0250,10.0,6.0,37.0,8.1,'11111222,11111222,11111222' 
LOOP,urn:ioos:station:wmo:lopl1:1,2013-12-01T15:28:00Z,28.8850,-90.0250,10.0,5.4,49.0,7.3,'11111222,11111222,11111222' 
LOOP,urn:ioos:station:wmo:lopl1:1,2013-12-01T15:43:00Z,28.8850,-90.0250,10.0,6.6,66.0,7.9,'11111222,11111222,11111222' 
LOOP,urn:ioos:station:wmo:lopl1:1,2013-12-01T15:58:00Z,28.8850,-90.0250,10.0,6.2,73.0,7.2,'11111222,11111222,11111222' 
LOOP,urn:ioos:station:wmo:lopl1:1,2013-12-01T16:13:00Z,28.8850,-90.0250,10.0,6.1,79.0,7.2,'11111222,11111222,11111222' 
LOOP,urn:ioos:station:wmo:lopl1:1,2013-12-01T16:28:00Z,28.8850,-90.0250,10.0,6.1,85.0,6.9,'11111222,11111222,11111222' 
LOOP,urn:ioos:station:wmo:lopl1:1,2013-12-01T16:43:00Z,28.8850,-90.0250,10.0,5.6,74.0,6.7,'11111222,11111222,11111222' 
LOOP,urn:ioos:station:wmo:lopl1:1,2013-12-01T16:58:00Z,28.8850,-90.0250,10.0,5.2,80.0,6.0,'11111222,11111222,11111222' 
LOOP,urn:ioos:station:wmo:lopl1:1,2013-12-01T17:13:00Z,28.8850,-90.0250,10.0,4.7,77.0,5.5,'11111222,11111222,11111222' 
LOOP,urn:ioos:station:wmo:lopl1:1,2013-12-01T17:28:00Z,28.8850,-90.0250,10.0,4.2,75.0,5.2,'11111222,11111222,11111222' 
LOOP,urn:ioos:station:wmo:lopl1:1,2013-12-01T17:43:00Z,28.8850,-90.0250,10.0,3.9,64.0,4.9,'11111222,11111222,11111222' 
LOOP,urn:ioos:station:wmo:lopl1:1,2013-12-01T18:03:00Z,28.8850,-90.0250,10.0,4.6,64.0,5.8,'11111222,11111222,11111222' 
LOOP,urn:ioos:station:wmo:lopl1:1,2013-12-01T18:18:00Z,28.8850,-90.0250,10.0,5.0,67.0,5.5,'11111222,11111222,11111222' 
LOOP,urn:ioos:station:wmo:lopl1:1,2013-12-01T18:33:00Z,28.8850,-90.0250,10.0,4.1,57.0,5.1,'11111222,11111222,11111222' 
LOOP,urn:ioos:station:wmo:lopl1:1,2013-12-01T18:48:00Z,28.8850,-90.0250,10.0,3.8,67.0,4.8,'11111222,11111222,11111222' 
LOOP,urn:ioos:station:wmo:lopl1:1,2013-12-01T19:03:00Z,28.8850,-90.0250,10.0,3.8,66.0,4.6,'11111222,11111222,11111222' 
LOOP,urn:ioos:station:wmo:lopl1:1,2013-12-01T19:18:00Z,28.8850,-90.0250,10.0,3.3,63.0,4.2,'11111222,11111222,11111222' 
LOOP,urn:ioos:station:wmo:lopl1:1,2013-12-01T19:33:00Z,28.8850,-90.0250,10.0,3.5,61.0,4.3,'11111222,11111222,11111222' 
LOOP,urn:ioos:station:wmo:lopl1:1,2013-12-01T19:48:00Z,28.8850,-90.0250,10.0,3.1,68.0,3.9,'11111222,11111222,11111222' 
LOOP,urn:ioos:station:wmo:lopl1:1,2013-12-01T20:03:00Z,28.8850,-90.0250,10.0,3.1,70.0,4.0,'11111222,11111222,11111222' 
LOOP,urn:ioos:station:wmo:lopl1:1,2013-12-01T20:18:00Z,28.8850,-90.0250,10.0,2.6,83.0,3.4,'11111222,11111222,11111222' 
LOOP,urn:ioos:station:wmo:lopl1:1,2013-12-01T20:33:00Z,28.8850,-90.0250,10.0,1.9,82.0,2.5,'11111222,11111222,11111222' 
LOOP,urn:ioos:station:wmo:lopl1:1,2013-12-01T20:48:00Z,28.8850,-90.0250,10.0,1.8,68.0,2.4,'11111222,11111222,11111222' 
LOOP,urn:ioos:station:wmo:lopl1:1,2013-12-01T21:03:00Z,28.8850,-90.0250,10.0,1.6,102.0,2.4,'11111222,11111222,11111222' 
LOOP,urn:ioos:station:wmo:lopl1:1,2013-12-01T21:18:00Z,28.8850,-90.0250,10.0,1.6,68.0,2.2,'11111222,11111222,11111222' 
LOOP,urn:ioos:station:wmo:lopl1:1,2013-12-01T21:33:00Z,28.8850,-90.0250,10.0,1.3,14.0,2.0,'11111222,11111222,11111222' 
LOOP,urn:ioos:station:wmo:lopl1:1,2013-12-01T21:48:00Z,28.8850,-90.0250,10.0,1.0,52.0,1.5,'11111222,11111222,11111222' 
LOOP,urn:ioos:station:wmo:lopl1:1,2013-12-01T22:03:00Z,28.8850,-90.0250,10.0,1.3,39.0,1.9,'11111222,11111222,11111222' 
LOOP,urn:ioos:station:wmo:lopl1:1,2013-12-01T22:18:00Z,28.8850,-90.0250,10.0,1.3,68.0,2.1,'11111222,11111222,11111222' 
LOOP,urn:ioos:station:wmo:lopl1:1,2013-12-01T22:33:00Z,28.8850,-90.0250,10.0,1.3,79.0,1.8,'11111222,11111222,11111222' 
LOOP,urn:ioos:station:wmo:lopl1:1,2013-12-01T22:48:00Z,28.8850,-90.0250,10.0,0.8,73.0,1.3,'11111222,11111222,11111222' 
LOOP,urn:ioos:station:wmo:lopl1:1,2013-12-01T23:03:00Z,28.8850,-90.0250,10.0,0.8,72.0,1.5,'11111222,11111222,11111222' 
LOOP,urn:ioos:station:wmo:lopl1:1,2013-12-01T23:18:00Z,28.8850,-90.0250,10.0,0.5,90.0,0.9,'11111222,11111222,11111222' 
LOOP,urn:ioos:station:wmo:lopl1:1,2013-12-01T23:33:00Z,28.8850,-90.0250,10.0,0.5,164.0,0.7,'11111222,11111222,11111222' 
LOOP,urn:ioos:station:wmo:lopl1:1,2013-12-01T23:48:00Z,28.8850,-90.0250,10.0,0.3,286.0,0.8,'11111222,11111222,11111222' 
LOOP,urn:ioos:station:wmo:lopl1:1,2013-12-02T00:03:00Z,28.8850,-90.0250,10.0,0.2,187.0,0.7,'11111222,11111222,11111222' 
LOOP,urn:ioos:station:wmo:lopl1:1,2013-12-02T00:18:00Z,28.8850,-90.0250,10.0,0.2,300.0,0.8,'11111222,11111222,11111222' 
LOOP,urn:ioos:station:wmo:lopl1:1,2013-12-02T00:33:00Z,28.8850,-90.0250,10.0,0.7,4.0,1.5,'11111222,11111222,11111222' 
LOOP,urn:ioos:station:wmo:lopl1:1,2013-12-02T00:48:00Z,28.8850,-90.0250,10.0,0.3,254.0,1.4,'11111222,11111222,11111222' 
LOOP,urn:ioos:station:wmo:lopl1:1,2013-12-02T01:03:00Z,28.8850,-90.0250,10.0,0.6,0.0,1.1,'11111222,11111222,11111222' 
LOOP,urn:ioos:station:wmo:lopl1:1,2013-12-02T01:18:00Z,28.8850,-90.0250,10.0,0.6,235.0,1.3,'11111222,11111222,11111222' 
LOOP,urn:ioos:station:wmo:lopl1:1,2013-12-02T01:33:00Z,28.8850,-90.0250,10.0,0.3,348.0,0.6,'11111222,11111222,11111222' 
LOOP,urn:ioos:station:wmo:lopl1:1,2013-12-02T01:48:00Z,28.8850,-90.0250,10.0,0.3,86.0,0.6,'11111222,11111222,11111222' 
LOOP,urn:ioos:station:wmo:lopl1:1,2013-12-02T02:03:00Z,28.8850,-90.0250,10.0,0.8,241.0,1.7,'11111222,11111222,11111222' 
LOOP,urn:ioos:station:wmo:lopl1:1,2013-12-02T02:18:00Z,28.8850,-90.0250,10.0,0.8,257.0,1.4,'11111222,11111222,11111222' 
LOOP,urn:ioos:station:wmo:lopl1:1,2013-12-02T02:33:00Z,28.8850,-90.0250,10.0,1.3,230.0,2.0,'11111222,11111222,11111222' 
LOOP,urn:ioos:station:wmo:lopl1:1,2013-12-02T02:48:00Z,28.8850,-90.0250,10.0,1.9,273.0,2.5,'11111222,11111222,11111222' 
LOOP,urn:ioos:station:wmo:lopl1:1,2013-12-02T03:03:00Z,28.8850,-90.0250,10.0,1.9,253.0,2.4,'11111222,11111222,11111222' 
LOOP,urn:ioos:station:wmo:lopl1:1,2013-12-02T03:18:00Z,28.8850,-90.0250,10.0,3.4,270.0,4.5,'11111222,11111222,11111222' 
LOOP,urn:ioos:station:wmo:lopl1:1,2013-12-02T03:33:00Z,28.8850,-90.0250,10.0,2.7,247.0,4.1,'11111222,11111222,11111222' 
LOOP,urn:ioos:station:wmo:lopl1:1,2013-12-02T03:48:00Z,28.8850,-90.0250,10.0,3.7,266.0,4.4,'11111222,11111222,11111222' 
LOOP,urn:ioos:station:wmo:lopl1:1,2013-12-02T04:03:00Z,28.8850,-90.0250,10.0,3.5,254.0,4.3,'11111222,11111222,11111222' 
LOOP,urn:ioos:station:wmo:lopl1:1,2013-12-02T04:18:00Z,28.8850,-90.0250,10.0,3.6,251.0,4.6,'11111222,11111222,11111222' 
LOOP,urn:ioos:station:wmo:lopl1:1,2013-12-02T04:33:00Z,28.8850,-90.0250,10.0,4.4,266.0,5.4,'11111222,11111222,11111222' 
LOOP,urn:ioos:station:wmo:lopl1:1,2013-12-02T04:53:00Z,28.8850,-90.0250,10.0,4.9,268.0,5.6,'11111222,11111222,11111222' 
LOOP,urn:ioos:station:wmo:lopl1:1,2013-12-02T05:08:00Z,28.8850,-90.0250,10.0,4.6,264.0,5.1,'11111222,11111222,11111222' 
LOOP,urn:ioos:station:wmo:lopl1:1,2013-12-02T05:23:00Z,28.8850,-90.0250,10.0,3.6,269.0,4.6,'11111222,11111222,11111222' 
LOOP,urn:ioos:station:wmo:lopl1:1,2013-12-02T05:38:00Z,28.8850,-90.0250,10.0,4.8,258.0,5.5,'11111222,11111222,11111222' 
LOOP,urn:ioos:station:wmo:lopl1:1,2013-12-02T05:53:00Z,28.8850,-90.0250,10.0,4.7,251.0,5.9,'11111222,11111222,11111222' 
LOOP,urn:ioos:station:wmo:lopl1:1,2013-12-02T06:08:00Z,28.8850,-90.0250,10.0,4.7,257.0,5.7,'11111222,11111222,11111222' 
LOOP,urn:ioos:station:wmo:lopl1:1,2013-12-02T06:23:00Z,28.8850,-90.0250,10.0,4.3,252.0,5.3,'11111222,11111222,11111222' 
LOOP,urn:ioos:station:wmo:lopl1:1,2013-12-02T06:38:00Z,28.8850,-90.0250,10.0,5.1,260.0,5.7,'11111222,11111222,11111222' 
LOOP,urn:ioos:station:wmo:lopl1:1,2013-12-02T06:58:00Z,28.8850,-90.0250,10.0,4.3,261.0,5.2,'11111222,11111222,11111222' 
LOOP,urn:ioos:station:wmo:lopl1:1,2013-12-02T07:13:00Z,28.8850,-90.0250,10.0,4.2,227.0,5.1,'11111222,11111222,11111222' 
LOOP,urn:ioos:station:wmo:lopl1:1,2013-12-02T07:28:00Z,28.8850,-90.0250,10.0,4.4,235.0,5.2,'11111222,11111222,11111222' 
LOOP,urn:ioos:station:wmo:lopl1:1,2013-12-02T07:43:00Z,28.8850,-90.0250,10.0,4.4,227.0,5.1,'11111222,11111222,11111222' 
LOOP,urn:ioos:station:wmo:lopl1:1,2013-12-02T07:58:00Z,28.8850,-90.0250,10.0,3.6,237.0,4.4,'11111222,11111222,11111222' 
LOOP,urn:ioos:station:wmo:lopl1:1,2013-12-02T08:13:00Z,28.8850,-90.0250,10.0,4.7,284.0,5.1,'11111222,11111222,11111222' 
LOOP,urn:ioos:station:wmo:lopl1:1,2013-12-02T08:28:00Z,28.8850,-90.0250,10.0,4.0,281.0,5.1,'11111222,11111222,11111222' 
LOOP,urn:ioos:station:wmo:lopl1:1,2013-12-02T08:43:00Z,28.8850,-90.0250,10.0,3.9,301.0,4.5,'11111222,11111222,11111222' 
LOOP,urn:ioos:station:wmo:lopl1:1,2013-12-02T08:58:00Z,28.8850,-90.0250,10.0,4.6,301.0,5.6,'11111222,11111222,11111222' 
LOOP,urn:ioos:station:wmo:lopl1:1,2013-12-02T09:13:00Z,28.8850,-90.0250,10.0,4.5,302.0,5.1,'11111222,11111222,11111222' 
LOOP,urn:ioos:station:wmo:lopl1:1,2013-12-02T09:28:00Z,28.8850,-90.0250,10.0,4.8,302.0,5.6,'11111222,11111222,11111222' 
LOOP,urn:ioos:station:wmo:lopl1:1,2013-12-02T09:43:00Z,28.8850,-90.0250,10.0,4.8,320.0,5.8,'11111222,11111222,11111222' 
LOOP,urn:ioos:station:wmo:lopl1:1,2013-12-02T09:58:00Z,28.8850,-90.0250,10.0,3.5,334.0,4.7,'11111222,11111222,11111222' 
LOOP,urn:ioos:station:wmo:lopl1:1,2013-12-02T10:13:00Z,28.8850,-90.0250,10.0,3.5,331.0,4.7,'11111222,11111222,11111222' 
LOOP,urn:ioos:station:wmo:lopl1:1,2013-12-02T10:28:00Z,28.8850,-90.0250,10.0,3.1,317.0,4.4,'11111222,11111222,11111222' 
LOOP,urn:ioos:station:wmo:lopl1:1,2013-12-02T10:43:00Z,28.8850,-90.0250,10.0,3.7,309.0,4.3,'11111222,11111222,11111222' 
LOOP,urn:ioos:station:wmo:lopl1:1,2013-12-02T10:58:00Z,28.8850,-90.0250,10.0,2.8,315.0,4.2,'11111222,11111222,11111222' 
LOOP,urn:ioos:station:wmo:lopl1:1,2013-12-02T11:13:00Z,28.8850,-90.0250,10.0,2.8,309.0,3.8,'11111222,11111222,11111222' 
LOOP,urn:ioos:station:wmo:lopl1:1,2013-12-02T11:28:00Z,28.8850,-90.0250,10.0,2.0,310.0,2.7,'11111222,11111222,11111222' 
LOOP,urn:ioos:station:wmo:lopl1:1,2013-12-02T11:43:00Z,28.8850,-90.0250,10.0,1.3,332.0,2.4,'11111222,11111222,11111222' 
LOOP,urn:ioos:station:wmo:lopl1:1,2013-12-02T11:58:00Z,28.8850,-90.0250,10.0,1.4,335.0,2.6,'11111222,11111222,11111222' 
LOOP,urn:ioos:station:wmo:lopl1:1,2013-12-02T12:13:00Z,28.8850,-90.0250,10.0,1.4,316.0,2.4,'11111222,11111222,11111222' 
LOOP,urn:ioos:station:wmo:lopl1:1,2013-12-02T12:28:00Z,28.8850,-90.0250,10.0,1.2,318.0,2.2,'11111222,11111222,11111222' 
LOOP,urn:ioos:station:wmo:lopl1:1,2013-12-02T12:43:00Z,28.8850,-90.0250,10.0,0.5,326.0,1.3,'11111222,11111222,11111222' 
LOOP,urn:ioos:station:wmo:lopl1:1,2013-12-02T12:58:00Z,28.8850,-90.0250,10.0,0.8,353.0,2.1,'11111222,11111222,11111222' 
LOOP,urn:ioos:station:wmo:lopl1:1,2013-12-02T13:13:00Z,28.8850,-90.0250,10.0,0.2,203.0,0.8,'11111222,11111222,11111222' 
LOOP,urn:ioos:station:wmo:lopl1:1,2013-12-02T13:28:00Z,28.8850,-90.0250,10.0,0.2,249.0,0.7,'11111222,11111222,11111222' 
LOOP,urn:ioos:station:wmo:lopl1:1,2013-12-02T13:43:00Z,28.8850,-90.0250,10.0,0.5,189.0,1.4,'11111222,11111222,11111222' 
LOOP,urn:ioos:station:wmo:lopl1:1,2013-12-02T13:58:00Z,28.8850,-90.0250,10.0,0.3,203.0,0.8,'11111222,11111222,11111222' 
LOOP,urn:ioos:station:wmo:lopl1:1,2013-12-02T14:13:00Z,28.8850,-90.0250,10.0,0.5,219.0,1.0,'11111222,11111222,11111222' 
LOOP,urn:ioos:station:wmo:lopl1:1,2013-12-02T14:28:00Z,28.8850,-90.0250,10.0,0.6,139.0,1.0,'11111222,11111222,11111222' 
LOOP,urn:ioos:station:wmo:lopl1:1,2013-12-02T14:43:00Z,28.8850,-90.0250,10.0,0.9,120.0,1.3,'11111222,11111222,11111222' 
LOOP,urn:ioos:station:wmo:lopl1:1,2013-12-02T14:58:00Z,28.8850,-90.0250,10.0,0.9,188.0,1.1,'11111222,11111222,11111222' 
LOOP,urn:ioos:station:wmo:lopl1:1,2013-12-02T15:13:00Z,28.8850,-90.0250,10.0,1.3,192.0,1.8,'11111222,11111222,11111222' 
LOOP,urn:ioos:station:wmo:lopl1:1,2013-12-02T15:43:00Z,28.8850,-90.0250,10.0,1.7,170.0,2.1,'11111222,11111222,11111222' 
LOOP,urn:ioos:station:wmo:lopl1:1,2013-12-02T15:58:00Z,28.8850,-90.0250,10.0,2.2,191.0,2.7,'11111222,11111222,11111222' 
LOOP,urn:ioos:station:wmo:lopl1:1,2013-12-02T16:18:00Z,28.8850,-90.0250,10.0,2.0,188.0,2.8,'11111222,11111222,11111222' 
LOOP,urn:ioos:station:wmo:lopl1:1,2013-12-02T16:33:00Z,28.8850,-90.0250,10.0,2.0,183.0,2.7,'11111222,11111222,11111222' 
LOOP,urn:ioos:station:wmo:lopl1:1,2013-12-02T16:48:00Z,28.8850,-90.0250,10.0,2.5,178.0,3.2,'11111222,11111222,11111222' 
LOOP,urn:ioos:station:wmo:lopl1:1,2013-12-02T17:03:00Z,28.8850,-90.0250,10.0,3.4,182.0,4.4,'11111222,11111222,11111222' 
LOOP,urn:ioos:station:wmo:lopl1:1,2013-12-02T17:18:00Z,28.8850,-90.0250,10.0,3.8,192.0,4.8,'11111222,11111222,11111222' 
LOOP,urn:ioos:station:wmo:lopl1:1,2013-12-02T17:33:00Z,28.8850,-90.0250,10.0,4.1,183.0,4.7,'11111222,11111222,11111222' 
LOOP,urn:ioos:station:wmo:lopl1:1,2013-12-02T17:48:00Z,28.8850,-90.0250,10.0,4.2,190.0,4.8,'11111222,11111222,11111222' 
LOOP,urn:ioos:station:wmo:lopl1:1,2013-12-02T18:03:00Z,28.8850,-90.0250,10.0,4.4,195.0,4.9,'11111222,11111222,11111222' 
LOOP,urn:ioos:station:wmo:lopl1:1,2013-12-02T18:18:00Z,28.8850,-90.0250,10.0,4.5,193.0,5.3,'11111222,11111222,11111222' 
LOOP,urn:ioos:station:wmo:lopl1:1,2013-12-02T18:33:00Z,28.8850,-90.0250,10.0,4.9,202.0,5.5,'11111222,11111222,11111222' 
LOOP,urn:ioos:station:wmo:lopl1:1,2013-12-02T18:48:00Z,28.8850,-90.0250,10.0,4.8,206.0,5.3,'11111222,11111222,11111222' 
LOOP,urn:ioos:station:wmo:lopl1:1,2013-12-02T19:03:00Z,28.8850,-90.0250,10.0,4.6,209.0,5.1,'11111222,11111222,11111222' 
LOOP,urn:ioos:station:wmo:lopl1:1,2013-12-02T19:18:00Z,28.8850,-90.0250,10.0,4.3,216.0,4.8,'11111222,11111222,11111222' 
LOOP,urn:ioos:station:wmo:lopl1:1,2013-12-02T19:33:00Z,28.8850,-90.0250,10.0,4.8,216.0,5.5,'11111222,11111222,11111222' 
LOOP,urn:ioos:station:wmo:lopl1:1,2013-12-02T19:48:00Z,28.8850,-90.0250,10.0,4.3,207.0,4.8,'11111222,11111222,11111222' 
LOOP,urn:ioos:station:wmo:lopl1:1,2013-12-02T20:03:00Z,28.8850,-90.0250,10.0,3.9,209.0,4.4,'11111222,11111222,11111222' 
LOOP,urn:ioos:station:wmo:lopl1:1,2013-12-02T20:18:00Z,28.8850,-90.0250,10.0,3.9,206.0,4.1,'11111222,11111222,11111222' 
LOOP,urn:ioos:station:wmo:lopl1:1,2013-12-02T20:38:00Z,28.8850,-90.0250,10.0,5.2,213.0,5.5,'11111222,11111222,11111222' 
LOOP,urn:ioos:station:wmo:lopl1:1,2013-12-02T20:53:00Z,28.8850,-90.0250,10.0,5.2,209.0,5.3,'11111222,11111222,11111222' 
LOOP,urn:ioos:station:wmo:lopl1:1,2013-12-02T21:08:00Z,28.8850,-90.0250,10.0,5.5,211.0,6.0,'11111222,11111222,11111222' 
LOOP,urn:ioos:station:wmo:lopl1:1,2013-12-02T21:23:00Z,28.8850,-90.0250,10.0,5.8,218.0,6.2,'11111222,11111222,11111222' 
LOOP,urn:ioos:station:wmo:lopl1:1,2013-12-02T21:38:00Z,28.8850,-90.0250,10.0,5.5,217.0,6.1,'11111222,11111222,11111222' 
LOOP,urn:ioos:station:wmo:lopl1:1,2013-12-02T21:53:00Z,28.8850,-90.0250,10.0,5.7,213.0,6.0,'11111222,11111222,11111222' 
LOOP,urn:ioos:station:wmo:lopl1:1,2013-12-02T22:08:00Z,28.8850,-90.0250,10.0,5.3,208.0,5.7,'11111222,11111222,11111222' 
LOOP,urn:ioos:station:wmo:lopl1:1,2013-12-02T22:23:00Z,28.8850,-90.0250,10.0,4.7,214.0,5.2,'11111222,11111222,11111222' 
LOOP,urn:ioos:station:wmo:lopl1:1,2013-12-02T22:38:00Z,28.8850,-90.0250,10.0,5.4,213.0,5.7,'11111222,11111222,11111222' 
LOOP,urn:ioos:station:wmo:lopl1:1,2013-12-02T22:53:00Z,28.8850,-90.0250,10.0,5.7,209.0,6.1,'11111222,11111222,11111222' 
LOOP,urn:ioos:station:wmo:lopl1:1,2013-12-02T23:08:00Z,28.8850,-90.0250,10.0,6.2,208.0,6.7,'11111222,11111222,11111222' 
LOOP,urn:ioos:station:wmo:lopl1:1,2013-12-02T23:23:00Z,28.8850,-90.0250,10.0,7.1,212.0,7.5,'11111222,11111222,11111222' 
LOOP,urn:ioos:station:wmo:lopl1:1,2013-12-02T23:38:00Z,28.8850,-90.0250,10.0,7.2,208.0,7.7,'11111222,11111222,11111222' 
LOOP,urn:ioos:station:wmo:lopl1:1,2013-12-02T23:53:00Z,28.8850,-90.0250,10.0,7.3,208.0,7.7,'11111222,11111222,11111222' 
LOOP,urn:ioos:station:wmo:lopl1:1,2013-12-03T00:08:00Z,28.8850,-90.0250,10.0,7.2,213.0,7.6,'11111222,11111222,11111222' 
LOOP,urn:ioos:station:wmo:lopl1:1,2013-12-03T00:23:00Z,28.8850,-90.0250,10.0,7.3,213.0,7.8,'11111222,11111222,11111222' 
LOOP,urn:ioos:station:wmo:lopl1:1,2013-12-03T00:38:00Z,28.8850,-90.0250,10.0,7.2,211.0,8.0,'11111222,11111222,11111222' 
LOOP,urn:ioos:station:wmo:lopl1:1,2013-12-03T00:53:00Z,28.8850,-90.0250,10.0,7.2,208.0,7.9,'11111222,11111222,11111222' 
LOOP,urn:ioos:station:wmo:lopl1:1,2013-12-03T01:08:00Z,28.8850,-90.0250,10.0,7.8,210.0,8.1,'11111222,11111222,11111222' 
LOOP,urn:ioos:station:wmo:lopl1:1,2013-12-03T01:23:00Z,28.8850,-90.0250,10.0,7.8,214.0,8.3,'11111222,11111222,11111222' 
LOOP,urn:ioos:station:wmo:lopl1:1,2013-12-03T01:38:00Z,28.8850,-90.0250,10.0,7.6,204.0,8.2,'11111222,11111222,11111222' 
LOOP,urn:ioos:station:wmo:lopl1:1,2013-12-03T01:53:00Z,28.8850,-90.0250,10.0,7.6,207.0,7.9,'11111222,11111222,11111222' 
LOOP,urn:ioos:station:wmo:lopl1:1,2013-12-03T02:08:00Z,28.8850,-90.0250,10.0,7.8,207.0,8.1,'11111222,11111222,11111222' 
LOOP,urn:ioos:station:wmo:lopl1:1,2013-12-03T02:23:00Z,28.8850,-90.0250,10.0,7.8,204.0,8.3,'11111222,11111222,11111222' 